K1PH Weather Reports


Display with metric or nautical units.
time (UTC)temp
F
wind
direction
speed
MPH
gust
MPH
rain 1hr
in
rain 24hr
in
rain mn
in
humidity
%
barometer
mb
20260506073007 53 110 0.0 1.0 0.00 0.00 0.00 90 990.2
20260506072007 54 133 0.0 1.0 0.00 0.00 0.00 90 990.3
20260506071007 54 131 1.0 2.0 0.00 0.00 0.00 89 990.2
20260506062007 56 335 0.0 0.0 0.00 0.00 0.00 88 990.0
20260506061007 56 335 0.0 0.0 0.00 0.00 0.00 88 990.2
20260506051007 58 284 0.0 0.0 0.00 0.00 0.00 86 990.2
20260506045006 58 129 0.0 0.0 0.00 0.00 0.00 86 990.3
20260506044007 58 129 0.0 0.0 0.00 0.00 0.00 86 990.2
20260506043006 59 129 1.0 2.0 0.00 0.00 0.00 86 990.2
20260506042006 59 117 1.0 1.0 0.00 0.00 0.00 86 990.2
20260506041006 60 125 0.0 1.0 0.00 0.00 0.00 85 990.2
20260506040006 61 131 1.0 2.0 0.00 0.00 0.00 83 990.3
20260506035007 61 159 0.0 1.0 0.00 0.00 0.00 82 990.2
20260506034007 62 356 1.0 1.0 0.00 0.00 0.00 82 990.0
20260506032007 63 106 0.0 0.0 0.00 0.00 0.00 79 989.9
20260506031006 63 106 0.0 1.0 0.00 0.00 0.00 76 989.9
20260506030006 64 4 0.0 1.0 0.00 0.00 0.00 75 989.8
20260506025006 64 96 0.0 3.0 0.00 0.00 0.00 74 989.8
20260506024006 64 60 0.0 1.0 0.00 0.00 0.00 73 989.9
20260506023006 65 55 0.0 1.0 0.00 0.00 0.00 73 989.9
20260506022006 65 89 0.0 2.0 0.00 0.00 0.00 72 990.1
20260506021006 65 75 2.0 3.0 0.00 0.00 0.00 72 989.8
20260506020006 64 68 2.0 3.0 0.00 0.00 0.00 72 989.5
20260506015007 64 72 2.0 3.0 0.00 0.00 0.00 76 989.5
20260506014006 64 131 0.0 2.0 0.00 0.00 0.00 81 989.6
20260506012006 64 94 1.0 3.0 0.00 0.00 0.00 80 989.5
20260506011006 65 114 3.0 3.0 0.00 0.00 0.00 80 989.3
20260506010006 65 87 3.0 7.0 0.00 0.00 0.00 79 989.3
20260506005006 66 116 2.0 2.0 0.00 0.00 0.00 74 989.2
20260506004007 66 92 1.0 3.0 0.00 0.00 0.00 72 989.5
20260506003010 67 68 3.0 3.0 0.00 0.00 0.00 71 989.2
20260506002006 68 243 0.0 1.0 0.00 0.00 0.00 68 989.0
20260506001006 68 73 0.0 2.0 0.00 0.00 0.00 65 988.7
20260505233005 72 278 2.0 8.0 0.00 0.00 0.00 57 987.8
20260505231006 74 303 3.0 6.0 0.00 0.00 0.00 50 987.2
20260505230005 74 138 2.0 8.0 0.00 0.00 0.00 49 986.7
20260505225006 75 282 3.0 6.0 0.00 0.00 0.00 48 986.5
20260505224006 75 141 2.0 3.0 0.00 0.00 0.00 49 986.4
20260505223005 76 101 2.0 8.0 0.00 0.00 0.00 47 986.0
20260505222006 76 108 3.0 8.0 0.00 0.00 0.00 46 985.9
20260505221005 77 88 2.0 6.0 0.00 0.00 0.00 45 985.8
20260505220005 78 105 1.0 7.0 0.00 0.00 0.00 44 985.7
20260505215005 78 133 2.0 5.0 0.00 0.00 0.00 43 985.7
20260505214006 80 107 2.0 6.0 0.00 0.00 0.00 41 985.5
20260505213005 80 208 2.0 5.0 0.00 0.00 0.00 40 985.4
20260505212006 80 166 2.0 7.0 0.00 0.00 0.00 40 985.3
20260505211005 80 167 2.0 6.0 0.00 0.00 0.00 42 985.2
20260505210005 80 122 1.0 5.0 0.00 0.00 0.00 40 985.0
20260505205005 80 141 3.0 7.0 0.00 0.00 0.00 34 985.0
20260505203005 81 152 2.0 7.0 0.00 0.00 0.00 33 985.1
20260505201010 79 279 2.0 6.0 0.00 0.00 0.00 37 985.4
20260505195010 79 169 2.0 8.0 0.00 0.00 0.00 40 985.4
20260505194010 80 164 3.0 9.0 0.00 0.00 0.00 39 985.5
20260505192010 81 210 2.0 8.0 0.00 0.00 0.00 38 985.6
20260505191010 82 118 3.0 8.0 0.00 0.00 0.00 38 985.7
20260505190010 81 207 2.0 8.0 0.00 0.00 0.00 40 985.6
20260505185010 82 180 2.0 7.0 0.00 0.00 0.00 39 985.9
20260505184009 81 86 4.0 7.0 0.00 0.00 0.00 39 985.9
20260505183010 81 274 3.0 8.0 0.00 0.00 0.00 39 986.1
20260505182009 81 140 2.0 9.0 0.00 0.00 0.00 39 986.3
20260505181010 81 264 5.0 9.0 0.00 0.00 0.00 39 986.5
20260505174009 81 285 4.0 7.0 0.00 0.00 0.00 40 986.5
20260505173009 80 196 4.0 8.0 0.00 0.00 0.00 41 986.8
20260505172009 80 158 3.0 8.0 0.00 0.00 0.00 38 986.8
20260505171009 80 103 2.0 7.0 0.00 0.00 0.00 41 987.0
20260505165009 80 292 2.0 8.0 0.00 0.00 0.00 41 987.3
20260505164013 78 232 1.0 6.0 0.00 0.00 0.00 42 987.6
20260505163009 78 210 2.0 3.0 0.00 0.00 0.00 42 987.8
20260505162009 77 149 2.0 6.0 0.00 0.00 0.00 44 988.0
20260505161009 77 283 2.0 6.0 0.00 0.00 0.00 45 988.1
20260505153009 75 107 2.0 6.0 0.00 0.00 0.00 46 988.9
20260505152009 73 283 2.0 5.0 0.00 0.00 0.00 48 989.1
20260505151009 73 106 2.0 5.0 0.00 0.00 0.00 48 989.3
20260505125009 60 149 2.0 7.0 0.00 0.00 0.00 66 990.1
20260505124008 59 166 1.0 2.0 0.00 0.00 0.00 69 990.2
20260505123008 58 97 4.0 6.0 0.00 0.00 0.00 70 990.2
20260505120008 55 75 1.0 2.0 0.00 0.00 0.00 76 990.3
20260505115008 54 162 0.0 2.0 0.00 0.00 0.00 77 990.4
20260505114008 52 88 2.0 3.0 0.00 0.00 0.00 79 990.5
20260505113008 50 97 1.0 2.0 0.00 0.00 0.00 85 990.5
20260505112008 48 127 0.0 1.0 0.00 0.00 0.00 89 990.5
20260505111008 46 80 0.0 2.0 0.00 0.00 0.00 89 990.4
20260505102008 43 282 0.0 0.0 0.00 0.00 0.00 92 989.8
20260505101008 43 282 0.0 0.0 0.00 0.00 0.00 92 989.8
20260505100007 43 282 0.0 0.0 0.00 0.00 0.00 91 989.8
20260505095008 43 282 0.0 0.0 0.00 0.00 0.00 91 989.8
20260505094008 43 282 0.0 0.0 0.00 0.00 0.00 91 989.8
20260505093007 43 282 0.0 0.0 0.00 0.00 0.00 91 989.9
20260505091008 43 282 0.0 0.0 0.00 0.00 0.00 90 989.9
20260505090007 44 282 0.0 0.0 0.00 0.00 0.00 90 990.0
20260505085007 44 282 0.0 0.0 0.00 0.00 0.00 90 990.1
20260505084007 44 282 0.0 0.0 0.00 0.00 0.00 89 990.1
20260505083008 44 282 0.0 0.0 0.00 0.00 0.00 89 990.0
20260505082007 44 282 0.0 0.0 0.00 0.00 0.00 89 990.0
20260505081007 44 282 0.0 2.0 0.00 0.00 0.00 89 990.0